Powrót do katalogu

DELTA 1 DEB

AktywnySSO
NORAD 21433·DEBRIS·🇺🇸 United States

Wystrzelony Jun 12, 1975 z Vandenberg Space Force Base

Loading…

Następne Przeloty (najbliższe 24 godziny)

TLE

ŚwieżeSource: Space-Track

Epoka: Sep 14, 2026, 10:06 UTC

1 21433U 75052DR  26257.42133567  .00000108  00000-0  23529-3 0  9998
2 21433  99.7511  57.8931 0058944  21.9913   6.9409 13.50364216740151

Śledź DELTA 1 DEB w czasie rzeczywistym z AllMySat

Download on the App Store